This is the latest recevied weather packets stored in our database for station/object SHLBYV-WX. If no packets are shown the sender has not sent any weather packets the latest 10 day(s).
| Time | Temp. | Humidity | Pressure | Rain* | Wind** | Luminosity | Snow |
|---|---|---|---|---|---|---|---|
| 1777739470 | 7.22° C | 47% | 988.8 hPa | 0 mm | - | - | - |
| 1777738550 | 7.22° C | 47% | 988.8 hPa | 0 mm | - | - | - |
| 1777737681 | 6.67° C | 47% | 988.8 hPa | 0 mm | - | - | - |
| 1777736750 | 6.67° C | 49% | 988.7 hPa | 0 mm | - | - | - |
| 1777735867 | 6.11° C | 54% | 988.9 hPa | 0 mm | - | - | - |
| 1777734951 | 5.56° C | 54% | 988.9 hPa | 0 mm | - | - | - |
| 1777734083 | 5.56° C | 54% | 988.9 hPa | 0 mm | - | - | - |
| 1777733151 | 5.56° C | 55% | 989.3 hPa | 0 mm | - | - | - |
| 1777732265 | 5° C | 63% | 989.6 hPa | 0 mm | - | - | - |
| 1777731351 | 4.44° C | 63% | 989.6 hPa | 0 mm | - | - | - |
| 1777730488 | 4.44° C | 63% | 989.6 hPa | 0 mm | - | - | - |
| 1777729551 | 3.89° C | 73% | 989.3 hPa | 0 mm | - | - | - |
| 1777728669 | 3.89° C | 73% | 989.3 hPa | 0 mm | - | - | - |
| 1777727751 | 2.78° C | 73% | 989.2 hPa | 0 mm | - | - | - |
| 1777726879 | 2.78° C | 73% | 989.2 hPa | 0 mm | - | - | - |
| 1777725950 | 2.22° C | 79% | 988.4 hPa | 0 mm | - | - | - |
| 1777725068 | 1.67° C | 78% | 989.3 hPa | 0 mm | - | - | - |
| 1777724150 | 1.11° C | 78% | 989.3 hPa | 0 mm | - | - | - |
| 1777723290 | 0.56° C | 78% | 989.3 hPa | 0 mm | - | - | - |
| 1777722350 | 0.56° C | 85% | 989 hPa | 0 mm | - | - | - |
| 1777721472 | 0° C | 85% | 988.9 hPa | 0 mm | - | - | - |
| 1777720550 | 0° C | 85% | 988.9 hPa | 0 mm | - | - | - |
| 1777719679 | -0.56° C | 85% | 988.9 hPa | 0 mm | - | - | - |
| 1777718750 | -0.56° C | 83% | 988.7 hPa | 0 mm | - | - | - |
| 1777717868 | -0.56° C | 81% | 989 hPa | 0 mm | - | - | - |
* Rain latest hour (hover to see other rain measurements)
** Current wind speed in m/s (hover to see current wind gust speed)